Regional Weather Roundup
Issued by NWS Lake Charles, LA

Current Version | Previous Version | Text Only | Print | Product List | Glossary On
Versions: 1 2 3 4 5 6 7 8 9 10 11 12 13 14 15 16 17 18 19 20 21 22 23 24 25 26 27 28
000
ASUS44 KLCH 252110
RWRLCH
REGIONAL WEATHER ROUNDUP
NATIONAL WEATHER SERVICE LAKE CHARLES LA
400 PM CDT SAT MAR 25 2017

Note: "fair" indicates few or no clouds below 12,000 feet with no
significant weather and/or obstructions to visibility.


ACROSS SOUTHEAST TEXAS

CITY           SKY/WX    TMP DP  RH WIND       PRES   REMARKS
BEAUMONT       MOSUNNY   80  67  64 S9        29.94F
BEAUMONT CITY  FAIR     N/A N/A N/A W5        29.95F
ORANGE         PTCLDY    76  67  74 S10G17    29.96F
JASPER         SUNNY     78  49  35 SW8       29.96F
$$

ACROSS CENTRAL LOUISIANA

CITY           SKY/WX    TMP DP  RH WIND       PRES   REMARKS
LEESVILLE      MOSUNNY   77  51  39 SW14      29.92F
FULLERTON      FAIR      79  52  38 VRB3      29.90F
ALEXANDRIA INT LGT RAIN  77  56  48 SW10      29.90F
ESLER FIELD    MOSUNNY   80  59  48 W13       29.91F
DERIDDER       FAIR      78  51  39 SW12      29.95F
OAKDALE        MOCLDY    76  62  63 SW10G17   29.94F
OPELOUSAS      FAIR      79  55  44 MISG      29.94F
$$

ACROSS SOUTHWEST AND SOUTH CENTRAL LOUISIANA

CITY           SKY/WX    TMP DP  RH WIND       PRES   REMARKS
SULPHUR        MOCLDY    78  65  66 SW13G21   29.96S
LAKE CHARLES   MOSUNNY   76  64  66 SW17G25   29.95F
CHENNAULT INT  PTSUNNY   77  64  65 SW14      29.95F
CAMERON PHI    CLEAR     73  64  73 S14       29.96F
DEQUINCY       FAIR      76  62  61 W5        29.96S
JENNINGS       FAIR      77  61  57 SW12G18   29.95F
LAFAYETTE      CLOUDY    76  58  53 SW9       29.96F
NEW IBERIA     CLOUDY    75  58  55 SW6       29.97F
ABBEVILLE      FAIR      75  63  64 S8        29.97F
PATTERSON      MOSUNNY   72  64  76 S7        30.00F
SALT POINT       N/A     71  60  68 CALM      29.99F
$$

SELECTED SITES ACROSS THE REGION

CITY           SKY/WX    TMP DP  RH WIND       PRES   REMARKS
HOUSTON BUSH   MOSUNNY   80  53  39 NW8       29.95F
HOUSTON HOBBY  MOSUNNY   81  55  40 W8        29.94F
GALVESTON      SUNNY     78  70  76 S9        29.96F
COLLEGE STAT   SUNNY     75  51  43 MISG      29.97F
CONROE         SUNNY     76  47  35 W10       29.96F
HUNTSVILLE     SUNNY     75  47  36 VRB3      29.96F
LUFKIN         SUNNY     75  47  36 W8G17     29.94F
SHREVEPORT     MOSUNNY   77  48  35 NW15      29.91F
MONROE         SUNNY     77  51  40 W14       29.90F
NATCHEZ MS     MOSUNNY   75  57  53 S8        29.93F
BATON ROUGE    CLOUDY    73  59  61 SW7       29.97F
N.O. INTL ARPT LGT RAIN  64  61  90 S7        30.03F
SLIDELL        LGT RAIN  64  60  87 S5        30.03F
$$

MARINE REPORTS

STATION/POSITION TIME  SKY/WX   TEMP    WIND        PRES    VSBY
                                AIR SEA DIR/SP/G
                 (UTC)          (F)     (DEG/KT/KT) (MB)    (MI)
BUOY 30 S HIGH I 2050            72 72  210/  6/  6 1014.5F
WVE H/P(F/S)=  4/ 8

SEA RIM ST PARK  2100            72     180/ 13/ 16 1014.7F
PORT ARTHUR      2042               72  220/ 11/ 14 1014.4F
SABINE PASS N    2048            73 74  190/ 12/ 18 1015.6F
TEXAS POINT      NOT AVBL
CALCASIEU PASS   2048            71 72  200/ 13/ 15   N/A
LK CHARLES BEACH 2048            76 70              1014.5F
MARSH ISLAND     2000            71                   N/A
FRESH WATER LOCK 2048            66 74  170/ 12/ 14 1014.7F
AMERADA PASS     2048            67 62  160/  4/  6 1015.9F
$$




USA.gov is the U.S. government's official web portal to all federal, state and local government web resources and services.